#timestamp,LO_Frequency,Hit,StdDev 
1507975215.0,286047005.4,P
1507975215.9,286047005.4,N
1507975235.8,286047005.8,N
1507975255.6,286047004.2,N
1507975275.4,286047004.1,N
1507975295.3,286047004.1,N
1507975315.1,286047000.1,N
1507975335.9,286047002.8,N
1507975355.7,286046999.7,N
1507975375.5,286047001.5,N
1507975395.4,286047002.5,N
1507975415.2,286047000.3,N
1507975435.0,286046999.7,N
1507975435.9,286046999.7,N
1507975455.8,286047002.3,N
1507975475.6,286047002.3,N
1507975495.5,286047002.2,N
1507975515.3,286047004.2,N
1507975535.1,286047004.3,N
1507975555.9,286047003.4,N
1507975575.7,286047003.4,N
1507975595.5,286047001.4,N
1507975615.4,286047000.9,N
1507975635.2,286047001.0,N
1507975655.1,286046998.2,N
1507975656.0,286046998.2,N
1507975675.8,286046998.5,N
1507975695.6,286046996.8,N
1507975715.5,286046999.5,N
1507975735.3,286046999.2,N
1507975755.1,286046997.5,N
1507975775.9,286046997.5,N
1507975795.7,286046997.4,N
1507975815.6,286046998.4,N
1507975835.4,286047002.6,N
1507975855.2,286047001.5,N
1507975875.1,286047002.6,N
1507975876.0,286047002.6,N
1507975895.8,286047002.6,N
1507975915.6,286047002.6,N
1507975935.5,286046998.1,N
1507975955.3,286046999.0,N
1507975975.2,286046999.1,N
1507975995.9,286046999.1,N
1507976015.7,286046999.2,N
1507976035.6,286046996.8,N
1507976055.4,286046997.7,N
1507976075.2,286046999.3,N
1507976095.1,286046999.0,N
1507976096.0,286046999.0,N
1507976115.8,286046999.4,N
1507976135.7,286046998.7,N
1507976155.5,286047001.0,N
1507976175.3,286047000.0,N
1507976195.2,286047000.2,N
1507976215.0,286047000.4,N
1507976215.9,286047000.4,N
1507976235.7,286047001.1,N
1507976255.6,286047001.1,N
1507976275.4,286046998.7,N
1507976295.3,286046999.0,N
1507976315.1,286046997.7,N
1507976316.0,286046997.7,N
1507976335.8,286046999.4,N
1507976355.7,286046997.0,N
1507976375.5,286046998.3,N
1507976395.3,286047000.6,N
1507976415.2,286047000.1,N
1507976435.0,286047000.1,N
1507976435.9,286047000.1,N
1507976455.8,286047000.2,N
1507976475.6,286046999.7,N
1507976495.4,286047000.6,N
1507976515.3,286046999.0,N
1507976535.1,286046999.4,N
1507976555.8,286046998.8,N
1507976575.7,286047000.5,N
1507976595.5,286047004.1,Y
1507976615.4,286047003.8,P
1507976635.2,286047003.0,N
1507976655.0,286047003.7,N
1507976655.9,286047003.7,N
1507976675.8,286047003.9,N
1507976695.6,286047000.3,N
1507976715.5,286046998.3,N
1507976735.3,286046998.8,N
1507976755.1,286046998.7,N
1507976775.9,286047001.0,N
1507976795.7,286047002.4,N
1507976815.5,286047002.7,N
1507976835.4,286047003.6,N
1507976855.2,286047004.4,N
1507976875.0,286047002.6,N
1507976876.0,286047002.6,N
1507976895.8,286046999.7,N
1507976915.6,286047002.0,N
1507976935.5,286047001.8,N
1507976955.3,286047003.4,N
1507976975.1,286047001.8,N
1507976995.9,286046999.7,N
1507977015.7,286046998.1,N
1507977035.6,286047001.2,N
1507977055.4,286046999.4,N
1507977075.2,286046993.6,Y
1507977095.1,286046996.4,P
1507977096.0,286046996.4,N
1507977115.8,286046997.7,N
1507977135.7,286046998.8,N
1507977155.5,286046999.8,N
1507977175.3,286046999.8,N
1507977195.2,286047000.0,N
1507977215.0,286046998.5,N
1507977215.9,286046998.5,N
1507977235.7,286046999.4,N
1507977255.6,286046999.6,N
1507977275.4,286046996.8,N
1507977295.3,286046996.9,N
1507977315.1,286046999.0,N
1507977316.0,286046999.0,N
1507977335.8,286046998.1,N
1507977355.7,286047000.9,N
1507977375.5,286047000.7,N
1507977395.3,286046998.2,N
1507977415.2,286046998.7,N
1507977435.0,286046997.1,N
1507977435.9,286046997.1,N
1507977455.8,286046996.5,N
1507977475.6,286047011.9,Y
1507977495.4,286047000.9,P
1507977515.3,286046998.4,N
1507977535.1,286047000.4,N
1507977555.9,286046999.2,N
1507977575.7,286046998.2,N
1507977595.5,286046999.4,N
1507977615.4,286046998.5,N
1507977635.2,286046999.7,N
1507977655.0,286047002.0,N
1507977655.9,286047002.0,N
1507977675.8,286047011.9,Y
1507977695.6,286047005.6,P
1507977715.5,286047005.5,N
1507977735.3,286047005.9,N
1507977755.1,286047003.0,N
1507977775.9,286047005.3,N
1507977795.7,286047007.3,Y
1507977815.5,286046999.8,P
1507977835.4,286047000.4,N
1507977855.2,286047002.4,N
1507977875.1,286047000.4,N
1507977876.0,286047000.4,N
1507977895.8,286047002.3,N
1507977915.6,286047000.8,N
1507977935.5,286046998.6,N
1507977955.3,286046999.2,N
1507977975.1,286046999.4,N
1507977995.9,286046996.6,N
1507978015.7,286047000.8,N
1507978035.6,286046998.5,N
1507978055.4,286046999.4,N
1507978075.2,286046999.4,N
1507978095.1,286046998.8,N
1507978096.0,286046998.8,N
1507978115.8,286046999.1,N
1507978135.7,286046996.8,N
1507978155.5,286046997.0,N
1507978175.3,286046996.5,N
1507978195.2,286046994.9,N
1507978215.9,286046997.5,N
1507978235.7,286046996.6,N
1507978255.6,286046998.6,N
1507978275.4,286047000.4,N
1507978295.3,286047000.7,N
1507978315.1,286047001.2,N
1507978316.0,286047001.2,N
1507978335.8,286047001.2,N
1507978355.7,286046999.5,N
1507978375.5,286046999.6,N
1507978395.3,286046999.6,N
1507978415.2,286046999.5,N
1507978435.0,286046999.4,N
1507978435.9,286046999.4,N
1507978455.8,286046998.6,N
1507978475.6,286046998.2,N
1507978495.4,286046996.8,N
1507978515.3,286046996.0,N
1507978535.1,286046995.0,Y
1507978555.8,286046998.3,P
1507978575.7,286046999.9,N
1507978595.5,286047002.5,P
1507978615.4,286047001.0,N
1507978635.2,286046999.0,N
1507978655.0,286046998.9,N
1507978655.9,286046998.9,N
1507978675.8,286046996.9,N
1507978695.6,286046999.5,N
1507978715.4,286046998.7,N
1507978735.3,286046998.8,N
1507978755.1,286046999.3,N
1507978775.9,286046999.0,N
1507978795.7,286046999.1,N
